Home   Weather   Coeur d'Alene   Past weeks

Flag for USA Past Weather in Coeur d'Alene, Idaho, USA — Yesterday and Last 2 Weeks

Now
74 °F

Sunny.


Feels Like: 77 °F
Forecast: 54 / 82 °F
Wind: 6 mph from South

Location: Coeur d'Alene Weather Reporting System

Current Time: Aug 16, 2017 at 9:09:54 pm

Latest Report: Aug 16, 2017 at 7:56 pm


Visibility: 10 mi

Pressure: 29.94 "Hg (27.76 "Hg at 655m altitude)

Humidity: 32%

Dew Point: 42 °F

Location of Coeur d'AleneLocation

Past Weather in Coeur d'Alene — Graph

°F

Coeur d'Alene Temperature Yesterday

Maximum temperature yesterday: 81 °F (at 2:56 pm)
Minimum temperature yesterday: 44 °F (at 4:56 am)
Average temperature yesterday: 64 °F

High & Low Weather Summary for the Past Weeks

 TemperatureHumidityPressure
High95 °F (Aug 11, 4:56 pm)84% (Aug 14, 1:56 am)30.14 "Hg (Aug 14, 1:56 am)
Low44 °F (Aug 15, 4:56 am)15% (Aug 7, 4:56 pm)29.76 "Hg (Aug 4, 4:56 pm)
Average74 °F45%29.95 "Hg
* Reported Aug 1 7:56 pm — Aug 16 7:56 pm, Coeur d'Alene. Weather by CustomWeather, © 2017

Note: Actual official high and low records may vary slightly from our data, if they occured in-between our weather recording intervals... More about our weather records

Advertising

Coeur d'Alene Weather History for the Previous 24 Hours

Scroll right to see more
 ConditionsComfort  
Time TempWeatherWind HumidityBarometerVisibility
7:56 pm
Wed, Aug 16
74 °FSunny.6 mph32%29.94 "Hg10 mi
6:56 pm80 °FSunny.7 mph24%29.94 "Hg10 mi
5:56 pm82 °FSunny.9 mph22%29.94 "Hg10 mi
4:56 pm82 °FSunny.12 mph23%29.96 "Hg10 mi
3:56 pm83 °FSunny.15 mph24%29.97 "Hg10 mi
2:56 pm83 °FSunny.12 mph24%29.98 "Hg10 mi
1:56 pm82 °FSunny.3 mph22%30.00 "Hg10 mi
12:56 pm81 °FSunny.10 mph25%30.02 "Hg10 mi
11:56 am76 °FSunny.No wind31%30.04 "Hg10 mi
10:56 am74 °FSunny.8 mph32%30.05 "Hg10 mi
9:56 am70 °FSunny.10 mph38%30.04 "Hg10 mi
8:56 am66 °FSunny.9 mph47%30.04 "Hg10 mi
7:56 am62 °FSunny.8 mph56%30.03 "Hg10 mi
6:56 am57 °FSunny.3 mph69%30.02 "Hg10 mi
5:56 am56 °FSunny.7 mph70%30.01 "Hg10 mi
4:56 am56 °FClear.8 mph72%29.99 "Hg10 mi
3:56 am56 °FClear.5 mph70%29.98 "Hg10 mi
2:56 am56 °FClear.No wind67%29.97 "Hg10 mi
1:56 am60 °FClear.5 mph56%29.96 "Hg10 mi
12:56 am52 °FClear.5 mph75%29.96 "Hg10 mi
11:56 pm
Tue, Aug 15
54 °FClear.3 mph62%29.95 "Hg10 mi
10:56 pm61 °FClear.No wind56%29.93 "Hg10 mi
9:56 pm63 °FClear.No wind45%29.93 "Hg10 mi
Weather by CustomWeather, © 2017

See weather overviewHow to use our weather pages